Fairbanks, AK

10:53 AM AKDT on March 27, 2017 (GMT -0800)
Fairbanks International

Weather History for PAFA - September, 2014

Change the Weather History Date:

Sunday, September 28, 2014

  Actual Average Record
Temperature  
Mean Temperature 35 °F 38 °F  
Max Temperature 46 °F 47 °F 64 °F (1969)
Min Temperature 24 °F 30 °F 12 °F (1956)
Degree Days  
Heating Degree Days 30 27  
Month to date heating degree days 494 551  
Since 1 July heating degree days 815 940  
Cooling Degree Days 0 0  
Month to date cooling degree days 0 0  
Year to date cooling degree days 27 61  
Moisture  
Dew Point 25 °F    
Average Humidity 69    
Maximum Humidity 85    
Minimum Humidity 36    
Precipitation  
Precipitation T in 0.03 in 0.60 in (1952)
Month to date precipitation 2.80 1.04  
Year to date precipitation 15.52 8.61  
Snow  
Snow T in 0.10 in 2.40 in (1952)
Month to date snowfall T 1.5  
Since 1 July snowfall T 1.5  
Since 1 September snowfall T 1.5  
Snow Depth 0.00 in    
Sea Level Pressure  
Sea Level Pressure 29.79 in    
Wind  
Wind Speed 2 mph (SSW)    
Max Wind Speed 8 mph    
Max Gust Speed -    
Visibility 10 miles    
Events      
T = Trace of Precipitation, MM = Missing Value Source: NWS Daily Summary

Daily Weather History Graph

Daily Weather History Graph

Search for Another Location

Airport or City:

Trip Planner

Search our weather history database for the weather conditions in past years. The results will help you decide how hot, cold, wet, or windy it might be!

Date:

Astronomy

Sep. 28, 2014 Rise Set
Actual Time 7:52 AM AKDT 7:29 PM AKDT
Civil Twilight 7:03 AM AKDT 8:18 PM AKDT
Nautical Twilight 6:05 AM AKDT 9:16 PM AKDT
Astronomical Twilight 5:00 AM AKDT 10:20 PM AKDT
Moon 1:53 PM AKDT (9/28) 8:41 PM AKDT (9/28)
Length of Visible Light 13h 14m
Length of Day
11h 37m
Waxing Crescent, 20% of the Moon is Illuminated
Sep 28
Waxing Crescent
Oct 1
First Quarter
Oct 8
Full
Oct 15
Last Quarter
Oct 23
New

Hourly Weather History & Observations

Time (AKDT) Temp. Windchill Dew Point Humidity Pressure Visibility Wind Dir Wind Speed Gust Speed Precip Events Conditions
12:53 AM 30.0 °F - 25.0 °F 82% 29.80 in 10.0 mi Calm Calm - N/A   Partly Cloudy
1:53 AM 28.9 °F - 25.0 °F 85% 29.79 in 10.0 mi Calm Calm - N/A   Partly Cloudy
2:53 AM 28.0 °F - 24.1 °F 85% 29.79 in 10.0 mi Calm Calm - N/A   Partly Cloudy
3:53 AM 28.0 °F - 23.0 °F 81% 29.78 in 10.0 mi Calm Calm - N/A   Partly Cloudy
4:53 AM 27.0 °F 20.5 °F 21.0 °F 78% 29.78 in 10.0 mi NE 5.8 mph - N/A   Partly Cloudy
5:53 AM 27.0 °F - 21.9 °F 81% 29.79 in 10.0 mi Calm Calm - N/A   Partly Cloudy
6:53 AM 26.1 °F - 21.0 °F 81% 29.79 in 10.0 mi Calm Calm - N/A   Partly Cloudy
7:53 AM 25.0 °F 19.3 °F 21.0 °F 85% 29.80 in 10.0 mi NNE 4.6 mph - N/A   Partly Cloudy
8:53 AM 26.1 °F - 21.9 °F 84% 29.80 in 10.0 mi Calm Calm - N/A   Partly Cloudy
9:53 AM 30.0 °F 25.2 °F 24.1 °F 79% 29.80 in 10.0 mi East 4.6 mph - N/A   Partly Cloudy
10:53 AM 32.0 °F - 25.0 °F 75% 29.81 in 10.0 mi Calm Calm - N/A   Partly Cloudy
11:53 AM 35.1 °F - 25.0 °F 67% 29.80 in 10.0 mi Calm Calm - N/A   Partly Cloudy
12:53 PM 37.9 °F 35.5 °F 26.1 °F 62% 29.80 in 10.0 mi Variable 3.5 mph - N/A   Partly Cloudy
1:53 PM 39.9 °F 35.1 °F 27.0 °F 60% 29.79 in 10.0 mi South 6.9 mph - N/A   Partly Cloudy
2:53 PM 42.1 °F 37.7 °F 27.0 °F 55% 29.78 in 10.0 mi South 6.9 mph - N/A   Scattered Clouds
3:53 PM 44.1 °F 39.5 °F 26.1 °F 49% 29.77 in 10.0 mi SSW 8.1 mph - N/A   Mostly Cloudy
4:53 PM 45.0 °F 40.6 °F 25.0 °F 46% 29.76 in 10.0 mi WSW 8.1 mph - N/A   Mostly Cloudy
5:53 PM 43.0 °F 38.2 °F 25.0 °F 49% 29.78 in 10.0 mi WSW 8.1 mph - N/A   Mostly Cloudy
6:53 PM 42.1 °F 40.2 °F 26.1 °F 53% 29.78 in 10.0 mi SSW 3.5 mph - N/A   Mostly Cloudy
7:53 PM 37.9 °F 34.4 °F 26.1 °F 62% 29.78 in 10.0 mi South 4.6 mph - N/A   Mostly Cloudy
8:53 PM 37.0 °F - 26.1 °F 65% 29.78 in 10.0 mi Calm Calm - N/A   Mostly Cloudy
9:53 PM 33.1 °F - 26.1 °F 75% 29.79 in 10.0 mi Calm Calm - N/A   Mostly Cloudy
10:53 PM 35.1 °F - 27.0 °F 72% 29.79 in 10.0 mi Calm Calm - N/A   Overcast
11:53 PM 36.0 °F - 28.0 °F 73% 29.79 in 10.0 mi Calm Calm - N/A   Overcast